Home   Weather   Velbert   Past weeks

Flag for Germany Past Weather in Velbert, North Rhine-Westphalia, Germany — Yesterday and Last 2 Weeks

Now
46 °F

Sunny.


Feels Like: 39 °F
Forecast: 41 / 51 °F
Wind: 18 mph from Southwest

Location: Duesseldorf

Current Time: Feb 25, 2017 at 5:30:42 pm

Latest Report: Feb 25, 2017 at 4:50 pm


Visibility: 10 mi

Pressure: 30.04 "Hg

Humidity: 53%

Dew Point: 30 °F

Location of VelbertLocation

Past Weather in Velbert — Graph

°F

Velbert Temperature Yesterday

Maximum temperature yesterday: 45 °F (at 11:50 am)
Minimum temperature yesterday: 32 °F (at 11:50 pm)
Average temperature yesterday: 41 °F

High & Low Weather Summary for the Past Weeks

 TemperatureHumidityPressure
High61 °F (Feb 15, 3:50 pm)100% (Feb 11, 7:50 pm)30.51 "Hg (Feb 11, 7:50 pm)
Low27 °F (Feb 13, 5:50 am)38% (Feb 14, 3:50 pm)29.24 "Hg (Feb 23, 4:20 pm)
Average43 °F79%30.13 "Hg
* Reported Feb 10 4:20 pm — Feb 25 4:20 pm, Velbert, Weather by CustomWeather, © 2017

Note: Actual official high and low records may vary slightly from our data, if they occured in-between our weather recording intervals... More about our weather records

Advertising

Velbert Weather History for the Previous 24 Hours

Scroll right to see more
 ConditionsComfort  
Time TempWeatherWind HumidityBarometerVisibility
4:20 pm
Sat, Feb 25
46 °FSunny.15 mph53%30.04 "Hg10 mi
3:50 pm46 °FSunny.15 mph53%30.07 "Hg10 mi
3:20 pm46 °FPartly sunny.15 mph57%30.04 "HgN/A
2:50 pm48 °FSunny.16 mph54%30.07 "Hg10 mi
2:20 pm48 °FPartly sunny.20 mph50%30.07 "HgN/A
1:50 pm48 °FPartly sunny.20 mph50%30.07 "HgN/A
1:20 pm48 °FPartly sunny.21 mph54%30.09 "HgN/A
12:50 pm48 °FPartly sunny.21 mph58%30.09 "HgN/A
12:20 pm48 °FPartly sunny.17 mph58%30.12 "HgN/A
11:50 am45 °FBroken clouds.16 mph61%30.12 "HgN/A
11:20 am45 °FSunny.14 mph61%30.12 "Hg10 mi
10:50 am43 °FSunny.13 mph71%30.12 "Hg10 mi
10:20 am41 °FSunny.13 mph76%30.15 "Hg10 mi
9:50 am39 °FSunny.12 mph81%30.15 "Hg10 mi
9:20 am37 °FSunny.9 mph87%30.15 "Hg10 mi
8:50 am36 °FSunny.10 mph87%30.15 "Hg10 mi
8:20 am34 °FClear.10 mph93%30.15 "Hg6 mi
7:50 am34 °FScattered clouds.12 mph93%30.15 "Hg4 mi
7:20 am32 °FClear.8 mph93%30.15 "Hg4 mi
6:50 am34 °FClear.7 mph93%30.15 "Hg5 mi
6:20 am34 °FPassing clouds.6 mph93%30.12 "Hg5 mi
5:50 am34 °FPassing clouds.6 mph93%30.12 "Hg5 mi
5:20 am34 °FPassing clouds.6 mph93%30.12 "Hg6 mi
4:50 am32 °FPartly cloudy.7 mph93%30.12 "HgN/A
4:20 am32 °FPartly cloudy.7 mph93%30.12 "HgN/A
3:50 am34 °FPassing clouds.7 mph87%30.12 "HgN/A
3:20 am34 °FPassing clouds.3 mph93%30.15 "HgN/A
2:50 am32 °FPassing clouds.6 mph93%30.15 "HgN/A
2:20 am32 °FPassing clouds.6 mph93%30.15 "HgN/A
1:50 am32 °FPassing clouds.6 mph93%30.15 "HgN/A
1:20 am32 °FClear.7 mph93%30.15 "Hg10 mi
12:50 am32 °FClear.7 mph93%30.15 "Hg10 mi
12:20 am30 °FClear.5 mph93%30.15 "Hg10 mi
11:50 pm
Fri, Feb 24
32 °FClear.6 mph93%30.12 "Hg10 mi
11:20 pm34 °FClear.3 mph87%30.12 "Hg10 mi
10:50 pm36 °FClear.6 mph87%30.12 "Hg10 mi
10:20 pm36 °FClear.6 mph87%30.12 "Hg10 mi
9:50 pm36 °FClear.6 mph87%30.09 "Hg10 mi
9:20 pm37 °FClear.6 mph81%30.09 "Hg10 mi
8:50 pm37 °FClear.5 mph81%30.09 "Hg10 mi
8:20 pm37 °FClear.3 mph81%30.09 "Hg10 mi
7:50 pm41 °FPassing clouds.5 mph70%30.09 "HgN/A
7:20 pm41 °FPartly cloudy.7 mph76%30.07 "HgN/A
6:50 pm43 °FSprinkles. Passing clouds.8 mph71%30.04 "HgN/A
6:20 pm43 °FPassing clouds.8 mph66%30.04 "HgN/A
5:50 pm43 °FScattered clouds.7 mph66%30.01 "HgN/A
5:20 pm45 °FPassing clouds.9 mph61%30.01 "HgN/A
Weather by CustomWeather, © 2017

See weather overviewHow to use our weather pages